Location: Conflandey
(47.7287°N, 6.0456°E)
Time: 02:14:36
(UTC+00:00)

Cosmos 2251 Rocket - Pass Details

Date: 24 October 2021
Orbit: 765 x 791 km, 74.0° (Epoch: 05 December)

Event Time Altitude Azimuth Distance (km) Brightness Sun altitude
Rises 18:10:17 0° 337° (NNW) 3,253 7.1 -17.3°
Reaches altitude 10° 18:12:40 10° 338° (NNW) 2,319 6.3 -17.7°
Maximum altitude 18:17:57 88° 65° (ENE) 774 3.4 -18.6°
Drops below altitude 10° 18:23:10 10° 158° (SSE) 2,297 5.7 -19.5°
Enters shadow 18:23:31 - 158° (SSE) 2,433 5.9 -19.5°
